Howell, MI

5:30 PM EDT on May 24, 2018 (GMT -0400)
Livingston County

Weather History for KOZW - December, 2012

Change the Weather History Date:

Friday, December 28, 2012

  Actual Average Record
Temperature  
Mean Temperature 18 °F -  
Max Temperature 28 °F 31 °F 53 °F (2008)
Min Temperature 8 °F 18 °F -11 °F (2017)
Degree Days  
Heating Degree Days 47    
Moisture  
Dew Point 16 °F    
Average Humidity 86    
Maximum Humidity 91    
Minimum Humidity 78    
Precipitation  
Precipitation 0.00 in - - ()
Sea Level Pressure  
Sea Level Pressure 30.06 in    
Wind  
Wind Speed 1 mph (ESE)    
Max Wind Speed 6 mph    
Max Gust Speed -    
Visibility 6 miles    
Events Snow    
Averages and records for this station are not official NWS values.
T = Trace of Precipitation, MM = Missing Value Source: NWS Daily Summary

Daily Weather History Graph

Daily Weather History Graph

Search for Another Location

Airport or City:

Astronomy

Dec. 28, 2012 Rise Set
Actual Time 8:05 AM EST 5:10 PM EST
Civil Twilight 7:33 AM EST 5:42 PM EST
Nautical Twilight 6:57 AM EST 6:17 PM EST
Astronomical Twilight 6:23 AM EST 6:52 PM EST
Moon 5:47 PM EST (12/28) 7:57 AM EST (12/28)
Length of Visible Light 10h 08m
Length of Day
9h 04m
Full, 100% of the Moon is Illuminated
Dec 28
Full
Jan 4
Last Quarter
Jan 11
New
Jan 18
First Quarter
Jan 26
Full

Hourly Weather History & Observations

Time (EST) Temp. Windchill Dew Point Humidity Pressure Visibility Wind Dir Wind Speed Gust Speed Precip Events Conditions
12:35 AM 15.6 °F - 12.0 °F 86% 30.10 in 7.0 mi Calm Calm - N/A   Clear
12:54 AM 14.0 °F - 10.9 °F 88% 30.10 in 5.0 mi Calm Calm - N/A   Clear
1:15 AM 14.4 °F - 11.1 °F 87% 30.10 in 7.0 mi Calm Calm - N/A   Clear
1:35 AM 13.1 °F - 9.5 °F 86% 30.10 in 7.0 mi Calm Calm - N/A   Clear
1:54 AM 12.0 °F 5.9 °F 8.4 °F 85% 30.10 in 7.0 mi SW 3.5 mph - N/A   Clear
2:15 AM 12.4 °F - 8.6 °F 85% 30.10 in 7.0 mi Calm Calm - N/A   Clear
2:34 AM 12.4 °F - 8.8 °F 85% 30.11 in 7.0 mi Calm Calm - N/A   Clear
2:54 AM 12.2 °F - 8.8 °F 86% 30.12 in 1.8 mi Calm Calm - N/A   Mist
3:15 AM 10.8 °F 4.5 °F 6.8 °F 84% 30.12 in 7.0 mi SW 3.5 mph - N/A   Clear
3:34 AM 9.7 °F 1.4 °F 5.9 °F 85% 30.12 in 7.0 mi WSW 4.6 mph - N/A   Clear
3:55 AM 9.5 °F - 5.5 °F 84% 30.12 in 7.0 mi Calm Calm - N/A   Clear
4:14 AM 10.8 °F 4.5 °F 7.2 °F 85% 30.13 in 7.0 mi WSW 3.5 mph - N/A   Clear
4:34 AM 8.6 °F - 4.8 °F 85% 30.12 in 7.0 mi Calm Calm - N/A   Clear
4:55 AM 10.0 °F - 6.4 °F 85% 30.12 in 7.0 mi Calm Calm - N/A   Clear
5:14 AM 9.5 °F - 5.9 °F 85% 30.11 in 7.0 mi Calm Calm - N/A   Clear
5:34 AM 9.7 °F - 6.1 °F 85% 30.11 in 1.2 mi Calm Calm - N/A Snow Light Snow
5:55 AM 11.3 °F - 7.7 °F 85% 30.12 in 7.0 mi Calm Calm - N/A   Overcast
6:14 AM 11.3 °F - 7.7 °F 85% 30.11 in 7.0 mi Calm Calm - N/A   Overcast
6:35 AM 11.3 °F - 7.7 °F 85% 30.10 in 7.0 mi Calm Calm - N/A   Mostly Cloudy
6:55 AM 11.1 °F - 7.3 °F 85% 30.10 in 7.0 mi Calm Calm - N/A   Clear
7:14 AM 11.3 °F - 7.7 °F 85% 30.10 in 7.0 mi Calm Calm - N/A   Mostly Cloudy
7:35 AM 11.7 °F - 7.7 °F 84% 30.10 in 7.0 mi Calm Calm - N/A   Scattered Clouds
7:55 AM 11.3 °F - 7.5 °F 85% 30.10 in 7.0 mi Calm Calm - N/A   Mostly Cloudy
8:14 AM 13.3 °F - 10.0 °F 87% 30.10 in 7.0 mi Calm Calm - N/A   Overcast
8:35 AM 14.4 °F - 11.1 °F 87% 30.10 in 7.0 mi Calm Calm - N/A   Overcast
8:55 AM 15.4 °F - 12.2 °F 87% 30.10 in 7.0 mi Calm Calm - N/A   Overcast
9:14 AM 15.8 °F - 12.4 °F 86% 30.11 in 7.0 mi Calm Calm - N/A   Overcast
9:35 AM 17.4 °F - 14.4 °F 88% 30.11 in 7.0 mi Calm Calm - N/A   Overcast
9:54 AM 18.0 °F - 14.7 °F 87% 30.12 in 10.0 mi Calm Calm - N/A   Overcast
10:14 AM 19.6 °F - 16.2 °F 87% 30.13 in 10.0 mi Calm Calm - N/A   Overcast
10:35 AM 20.3 °F - 16.3 °F 85% 30.15 in 7.0 mi Calm Calm - N/A   Overcast
10:54 AM 21.2 °F - 17.2 °F 85% 30.15 in 7.0 mi Calm Calm - N/A   Overcast
11:15 AM 21.9 °F - 17.2 °F 82% 30.15 in 10.0 mi Calm Calm - N/A   Overcast
11:34 AM 21.4 °F - 16.7 °F 82% 30.14 in 10.0 mi Calm Calm - N/A   Overcast
11:54 AM 22.3 °F - 17.2 °F 81% 30.13 in 7.0 mi Calm Calm - N/A   Overcast
12:15 PM 23.0 °F 17.0 °F 17.4 °F 79% 30.12 in 5.0 mi SSW 4.6 mph - N/A Snow Light Snow
12:34 PM 22.8 °F - 17.6 °F 80% 30.10 in 2.0 mi Calm Calm - N/A Snow Light Snow
12:55 PM 23.5 °F - 19.2 °F 84% 30.08 in 1.0 mi Calm Calm - N/A Snow Light Snow
1:15 PM 24.3 °F - 20.3 °F 85% 30.06 in 2.0 mi Calm Calm - N/A Snow Light Snow
1:34 PM 25.2 °F 20.9 °F 21.2 °F 85% 30.05 in 2.5 mi ESE 3.5 mph - N/A Snow Light Snow
1:55 PM 26.4 °F - 21.9 °F 83% 30.04 in 2.5 mi Calm Calm - N/A Snow Light Snow
2:15 PM 27.3 °F - 22.3 °F 81% 30.03 in 5.0 mi Calm Calm - N/A   Haze
2:34 PM 27.1 °F - 21.9 °F 81% 30.02 in 10.0 mi Calm Calm - N/A   Clear
2:55 PM 27.3 °F - 21.9 °F 80% 30.03 in 7.0 mi Calm Calm - N/A Snow Light Snow
3:15 PM 28.2 °F 24.4 °F 22.3 °F 78% 30.02 in 5.0 mi East 3.5 mph - N/A Snow Light Snow
3:34 PM 28.0 °F - 22.1 °F 78% 30.01 in 7.0 mi Calm Calm - N/A Snow Light Snow
3:55 PM 27.9 °F 24.0 °F 22.3 °F 80% 30.02 in 1.5 mi SE 3.5 mph - N/A Snow Light Snow
4:14 PM 28.0 °F 21.7 °F 23.0 °F 81% 30.02 in 1.8 mi SSE 5.8 mph - N/A Snow Light Snow
4:35 PM 27.9 °F 22.6 °F 23.0 °F 82% 30.01 in 3.0 mi SE 4.6 mph - N/A Snow Light Snow
4:55 PM 27.3 °F 22.0 °F 23.0 °F 84% 30.01 in 1.5 mi SE 4.6 mph - N/A Snow Light Snow
5:14 PM 26.6 °F - 23.0 °F 86% 30.00 in 3.0 mi Calm Calm - N/A Snow Light Snow
5:35 PM 26.4 °F - 22.6 °F 86% 30.00 in 5.0 mi Calm Calm - N/A Snow Light Snow
5:54 PM 26.4 °F 22.4 °F 22.8 °F 86% 30.00 in 7.0 mi East 3.5 mph - N/A Snow Light Snow
6:14 PM 26.6 °F 21.2 °F 23.0 °F 86% 29.99 in 7.0 mi East 4.6 mph - N/A   Overcast
6:54 PM 25.2 °F - 21.9 °F 87% 29.99 in 7.0 mi Calm Calm - N/A   Scattered Clouds
7:15 PM 24.3 °F - 21.2 °F 88% 30.00 in 5.0 mi Calm Calm - N/A   Clear
7:34 PM 23.7 °F - 21.0 °F 89% 30.00 in 5.0 mi Calm Calm - N/A   Clear
7:54 PM 23.5 °F - 21.0 °F 90% 29.99 in 5.0 mi Calm Calm - N/A   Scattered Clouds
8:15 PM 24.3 °F - 21.9 °F 91% 29.99 in 5.0 mi Calm Calm - N/A   Overcast
8:34 PM 23.7 °F - 21.4 °F 91% 29.99 in 5.0 mi Calm Calm - N/A   Overcast
8:55 PM 23.9 °F - 21.6 °F 91% 29.98 in 5.0 mi Calm Calm - N/A   Overcast
9:15 PM 24.4 °F - 22.1 °F 91% 29.98 in 5.0 mi Calm Calm - N/A   Overcast
9:34 PM 24.6 °F - 22.3 °F 91% 29.96 in 5.0 mi Calm Calm - N/A   Overcast
9:55 PM 24.4 °F - 22.1 °F 91% 29.96 in 5.0 mi Calm Calm - N/A   Overcast
10:15 PM 24.4 °F 20.1 °F 22.1 °F 91% 29.95 in 4.0 mi NE 3.5 mph - N/A   Overcast
10:34 PM 24.4 °F - 22.1 °F 91% 29.95 in 5.0 mi Calm Calm - N/A   Overcast
10:55 PM 24.6 °F 20.3 °F 22.5 °F 91% 29.94 in 5.0 mi ENE 3.5 mph - N/A   Overcast
11:14 PM 24.6 °F 20.3 °F 22.5 °F 91% 29.93 in 5.0 mi NE 3.5 mph - N/A   Overcast
11:35 PM 24.8 °F 20.5 °F 22.6 °F 91% 29.92 in 5.0 mi ENE 3.5 mph - N/A   Overcast
11:55 PM 24.8 °F 19.1 °F 22.6 °F 91% 29.91 in 5.0 mi ENE 4.6 mph - N/A   Overcast